Location: The Saddle
(36.8333°N, 80.3417°W)
Time: 15:35:19
(UTC-05:00)

A-11 Canister half - Pass Details

Date: 17 December 2023
Orbit: 1526 x 1682 km, 47.3° (Epoch: 01 March)

Event Time Altitude Azimuth Distance (km) Brightness Sun altitude
Rises 22:58:09 0° 302° (WNW) 4,932 12.0 -68.2°
Enters shadow 23:00:32 - 299° (WNW) 4,201 11.5 -68.6°
Reaches altitude 10° 23:01:25 10° 298° (WNW) 3,933 - -68.8°
Maximum altitude 23:11:05 54° 225° (SW) 1,940 - -70.3°
Drops below altitude 10° 23:20:29 10° 151° (SSE) 3,821 - -71.8°
Sets 23:23:38 0° 147° (SSE) 4,783 - -72.2°
